Orbital Elements at Epoch 2459000.5 (2020-May-31.0) TDB
Reference: JPL 20 (heliocentric ecliptic J2000)
Element | Value | Uncertainty (1-sigma) | Units |
e | .2045032754687592 | 6.8441e-08 | |
a | 3.123274330667003 | 2.6926e-08 | au |
q | 2.484554499858104 | 2.0311e-07 | au |
i | 18.69728232792281 | 5.5295e-06 | deg |
node | 131.0675158769895 | 2.0673e-05 | deg |
peri | 251.2730062156493 | 2.5756e-05 | deg |
M | 350.3799030032718 | 1.2701e-05 | deg |
tp | 2459054.375408337758 (2020-Jul-23.87540834) | 7.1079e-05 | TDB |
period | 2016.107218896991 5.52 | 2.6071e-05 7.138e-08 | d yr |
n | .1785619319378041 | 2.3091e-09 | deg/d |
Q | 3.761994161475902 | 3.2432e-08 | au |
|
| | Orbit Determination Parameters
Additional Information
|